Home > Weather > Fosnavåg > Past weeks

Flag for Norway Past Weather in Fosnavåg, Norway — Yesterday and Last 2 Weeks

Now
58 °F

Cool.


Feels Like: 58 °F
Forecast: 57 / 64 °F
Wind: 6 mph from Southwest

Location: Svinoy Fyr

Current Time: Jul 27, 2016 at 7:22:07 PM

Latest Report: Jul 27, 2016 at 6:00 PM


Visibility: N/A

Pressure: 29.74 "Hg

Humidity: 87%

Dew Point: 55 °F

Location of FosnavågLocation

Past Weather in Fosnavåg — Graph

°F

Fosnavåg Temperature Yesterday

Maximum temperature yesterday: 60 °F (at 2:00 PM)
Minimum temperature yesterday: 57 °F (at 9:00 AM)
Average temperature yesterday: 59 °F

High & Low Weather Summary for the Past Weeks

 TemperatureHumidityPressure
High66 °F (Jul 20, 8:00 PM)97% (Jul 22, 3:00 AM)30.14 "Hg (Jul 22, 3:00 AM)
Low52 °F (Jul 15, 8:00 AM)69% (Jul 21, 9:00 AM)29.61 "Hg (Jul 12, 6:00 PM)
Average58 °F86%29.93 "Hg
* Reported Jul 12 6:00 PM — Jul 27 6:00 PM, Fosnavåg, Weather by CustomWeather, © 2016

Note: Actual official high and low records may vary slightly from our data, if they occured in-between our weather recording intervals... More about our weather records

Advertising

Fosnavåg Weather History for the Previous 24 Hours

Scroll right to see more
 ConditionsComfort  
Time TempWeatherWind HumidityBarometerVisibility
6:00 PM
Wed, Jul 27
58 °FCool.6 mph87%29.74 "HgN/A
5:00 PM57 °FCool.8 mph89%29.75 "HgN/A
4:00 PM61 °FCool.2 mph84%29.75 "HgN/A
3:00 PM60 °FCool.5 mph85%29.75 "HgN/A
2:00 PM60 °FCool.8 mph86%29.76 "HgN/A
1:00 PM60 °FCool.6 mph86%29.78 "HgN/A
12:00 PM60 °FCool.6 mph84%29.80 "HgN/A
11:00 AM60 °FCool.5 mph80%29.82 "HgN/A
10:00 AM59 °FCool.6 mph83%29.83 "HgN/A
9:00 AM57 °FCool.5 mph88%29.85 "HgN/A
8:00 AM56 °FCool.5 mph91%29.86 "HgN/A
7:00 AM56 °FCool.3 mph92%29.87 "HgN/A
6:00 AM56 °FCool.6 mph91%29.88 "HgN/A
5:00 AM56 °FCool.8 mph90%29.88 "HgN/A
4:00 AM57 °FCool.8 mph89%29.89 "HgN/A
3:00 AM56 °FCool.7 mph93%29.89 "HgN/A
2:00 AM58 °FCool.6 mph82%29.89 "HgN/A
1:00 AM58 °FCool.8 mph82%29.90 "HgN/A
12:00 AM58 °FCool.12 mph84%29.89 "HgN/A
11:00 PM
Tue, Jul 26
58 °FCool.13 mph85%29.89 "HgN/A
10:00 PM58 °FCool.13 mph88%29.88 "HgN/A
9:00 PM58 °FCool.13 mph84%29.88 "HgN/A
8:00 PM58 °FCool.13 mph87%29.87 "HgN/A
7:00 PM58 °FCool.14 mph81%29.86 "HgN/A
Weather by CustomWeather, © 2016

See weather overviewHow to use our weather pages